Terug naar catalogus

STARLINK-36044

ActiefCommunicatieVLEO
NORAD 66799·PAYLOAD·🇺🇸 United States

Gelanceerd Dec 1, 2025 vanaf Cape Canaveral Space Force Station

Loading…

Volgende Passages (komende 24 uur)

TLE

VersSource: CelesTrak SupGP

Epoch: Sep 15, 2026, 02:42 UTC

1 66799C 25278J   26258.11298611  .00046787  00000+0  16948-2 0  2582
2 66799  42.9994 124.3352 0001588 271.1966  30.0986 15.27550338    16

Volg STARLINK-36044 in realtime met AllMySat

Download on the App Store